Tracking 25949 objects as of 8-Aug-2022
HD Live streaming from Space Station
objects crossing your sky now

AUREOLE 2


10-day predictions
AUREOLE 2 is classified as:


NORAD ID: 7003
Int'l Code: 1973-107A
Perigee: 371.0 km
Apogee: 867.8 km
Inclination: 73.9 °
Period: 96.9 minutes
Semi major axis: 6990 km
RCS: 2.1042 m2 (large)
Launch date: December 26, 1973
Source: France (FR)
Launch site: PLESETSK MISSILE AND SPACE COMPLEX (PKMTR)
aabbcc
Your satellite tracking list
Your tracking list is empty




NASA's NSSDC Master Catalog

Two Line Element Set (TLE):
1  7003U 73107A   22220.14833991  .00007469  00000-0  26889-3 0  9996
2  7003  73.9225 259.6994 0355317 176.0207 184.3943 14.85412957490956
Source of the keplerian elements: AFSPC